Location: Del Oro Observatory
(38.3044°N, 104.8119°W)
Time: 14:43:50
(UTC-06:00)

Iridium 35 - Visible Passes

Search period start: 26 September 2016 00:00
Search period end: 06 October 2016 00:00
Orbit: 776 x 779 km, 86.4° (Epoch: 26 September)

Date Brightness Start Highest point End Pass type
(mag) Time Alt. Az. Time Alt. Az. Time Alt. Az.
26 Sep 7.9 03:59:06 10° ESE 04:01:45 14° ENE 04:04:24 10° NE visible
26 Sep 5.0 05:36:44 10° SSW 05:41:52 60° W 05:47:02 10° N visible
27 Sep 5.2 05:03:10 10° S 05:08:21 73° E 05:13:34 10° N visible
28 Sep 6.4 04:30:10 10° SSE 04:34:57 38° E 04:39:45 10° NNE visible
28 Sep 6.2 06:11:46 10° SW 06:15:46 22° WNW 06:19:47 10° NNW visible
29 Sep 7.4 03:57:53 10° SE 04:01:40 21° E 04:05:28 10° NE visible
29 Sep 5.4 05:37:10 10° SSW 05:42:02 40° W 05:46:57 10° NNW visible
30 Sep 8.0 03:27:21 10° E 03:28:30 11° ENE 03:29:40 10° ENE visible
30 Sep 4.9 05:04:29 18° S 05:08:27 77° W 05:13:41 10° N visible
01 Oct 5.6 04:32:29 29° SSE 04:34:59 56° E 04:40:05 10° N visible
01 Oct 6.6 06:13:06 10° WSW 06:16:04 15° WNW 06:19:03 10° NW visible
02 Oct 6.7 04:00:14 26° ESE 04:01:37 30° E 04:06:06 10° NNE visible
02 Oct 5.9 05:40:47 24° WSW 05:42:16 28° W 05:46:43 10° NNW visible
03 Oct 7.5 03:27:48 16° E 03:28:23 16° E 03:31:30 10° NE visible
03 Oct 5.1 05:08:20 51° W 05:08:35 52° W 05:13:41 10° N visible
04 Oct 5.2 04:35:47 66° NNE 04:35:47 66° NNE 04:40:17 10° N visible
05 Oct 6.4 04:03:07 35° NE 04:03:07 35° NE 04:06:33 10° NNE visible
05 Oct 6.5 05:43:38 18° WNW 05:43:38 18° WNW 05:46:15 10° NNW visible
